Location: LDNL
(36.4545°S, 141.6685°E)
Time: 05:54:36
(UTC+11:00)

ISS - Visible Passes

Search period start: 08 December 2021 00:00
Search period end: 18 December 2021 00:00
Orbit: 417 x 422 km, 51.6° (Epoch: 07 December)

Date Brightness Start Highest point End Pass type
(mag) Time Alt. Az. Time Alt. Az. Time Alt. Az.
08 Dec -0.6 02:19:45 13° SSW 02:19:45 13° SSW 02:21:20 10° S visible
08 Dec -0.3 05:35:16 10° S 05:36:08 11° SSE 05:37:00 10° SE visible
09 Dec -0.5 01:33:27 14° S 01:33:27 14° S 01:34:28 10° SSE visible
10 Dec -0.5 00:46:56 13° SSE 00:46:56 13° SSE 00:47:25 10° SSE visible
10 Dec -0.7 05:36:01 10° SSW 05:38:37 20° SSE 05:41:12 10° ESE visible
10 Dec -0.7 23:59:58 12° SSE 23:59:58 12° SSE 00:00:15 10° SE visible
11 Dec -0.5 04:49:03 10° S 04:51:01 14° SSE 04:52:57 10° ESE visible
11 Dec -2.0 23:11:21 25° SE 23:11:21 25° SE 23:12:58 10° SE visible
12 Dec -0.3 00:45:20 10° SW 00:46:55 13° SSW 00:48:31 10° S visible
12 Dec -0.1 04:02:25 10° S 04:03:20 11° SSE 04:04:15 10° SE visible
12 Dec -3.8 22:18:47 10° NW 22:22:10 66° NE 22:25:34 10° SE visible
12 Dec -0.7 23:56:55 10° WSW 23:59:16 17° SSW 00:01:38 10° SSE visible
13 Dec -1.5 04:50:16 10° SSW 04:53:20 29° SSE 04:56:22 10° E visible
13 Dec -3.1 21:31:41 10° NNW 21:34:49 34° NE 21:37:58 10° ESE visible
13 Dec -1.3 23:08:48 10° W 23:11:40 24° SSW 23:14:33 10° SSE visible
14 Dec -0.8 04:03:09 10° SSW 04:05:46 20° SSE 04:08:22 10° ESE visible
14 Dec -2.1 22:20:55 10° WNW 22:24:08 38° SW 22:27:23 10° SE visible
15 Dec -0.4 03:16:09 10° S 03:18:08 14° SSE 03:20:05 10° ESE visible
15 Dec -3.8 04:51:57 10° SW 04:55:23 88° SE 04:58:46 10° NE visible
15 Dec -3.3 21:33:16 10° WNW 21:36:39 66° SW 21:40:04 10° SE visible
15 Dec -0.2 23:12:27 10° SW 23:14:01 13° SSW 23:15:36 10° S visible
16 Dec -0.1 02:29:29 10° S 02:30:26 11° SSE 02:31:23 10° SE visible
16 Dec -2.8 04:04:36 10° SW 04:07:56 49° SE 04:11:14 10° ENE visible
16 Dec -0.5 22:24:01 10° WSW 22:26:21 17° SSW 22:28:42 10° SSE visible
17 Dec -1.7 03:17:20 10° SSW 03:20:24 30° SSE 03:23:27 10° E visible
17 Dec -2.8 04:54:15 10° WSW 04:57:09 26° NW 05:00:01 10° N visible
17 Dec -1.1 21:35:52 10° W 21:38:44 24° SSW 21:41:37 10° SSE visible
